This is the latest recevied weather packets stored in our database for station/object K9ZOG. If no packets are shown the sender has not sent any weather packets the latest 10 day(s).
| Time | Temp. | Humidity | Pressure | Rain* | Wind** | Luminosity | Snow |
|---|---|---|---|---|---|---|---|
| 1777137253 | 16.67° C | 62% | 1014.4 hPa | 0 mm | - | 92 W/m² | - |
| 1777136952 | 16.67° C | 61% | 1014.4 hPa | 0 mm | - | 80 W/m² | - |
| 1777136656 | 16.67° C | 62% | 1014.5 hPa | 0 mm | - | 80 W/m² | - |
| 1777136353 | 16.67° C | 62% | 1014.5 hPa | 0 mm | - | 79 W/m² | - |
| 1777136053 | 16.67° C | 62% | 1014.5 hPa | 0 mm | - | 79 W/m² | - |
| 1777135752 | 16.11° C | 63% | 1014.5 hPa | 0 mm | - | 78 W/m² | - |
| 1777135453 | 16.11° C | 63% | 1014.5 hPa | 0 mm | - | 79 W/m² | - |
| 1777135153 | 16.11° C | 62% | 1014.6 hPa | 0 mm | - | 103 W/m² | - |
| 1777134853 | 15.56° C | 64% | 1014.5 hPa | 0 mm | - | 94 W/m² | - |
| 1777134559 | 15.56° C | 65% | 1014.5 hPa | 0 mm | - | 247 W/m² | - |
| 1777134253 | 15.56° C | 66% | 1014.6 hPa | 0 mm | - | 104 W/m² | - |
| 1777133953 | 15.56° C | 66% | 1014.6 hPa | 0 mm | - | 82 W/m² | - |
| 1777133653 | 15° C | 68% | 1014.7 hPa | 0 mm | - | 138 W/m² | - |
| 1777133353 | 15° C | 67% | 1014.8 hPa | 0 mm | - | 142 W/m² | - |
| 1777133053 | 15.56° C | 66% | 1014.9 hPa | 0 mm | - | 859 W/m² | - |
| 1777132753 | 15.56° C | 66% | 1014.9 hPa | 0 mm | - | 848 W/m² | - |
| 1777132452 | 15° C | 65% | 1015 hPa | 0 mm | - | 842 W/m² | - |
| 1777132152 | 15° C | 66% | 1015 hPa | 0 mm | - | 830 W/m² | - |
| 1777131853 | 15° C | 66% | 1015 hPa | 0 mm | - | 819 W/m² | - |
| 1777131555 | 14.44° C | 68% | 1015.1 hPa | 0 mm | - | 809 W/m² | - |
| 1777131252 | 14.44° C | 68% | 1015.1 hPa | 0 mm | - | 797 W/m² | - |
| 1777130953 | 14.44° C | 68% | 1015 hPa | 0 mm | - | 788 W/m² | - |
| 1777130653 | 13.89° C | 69% | 1014.9 hPa | 0 mm | - | 777 W/m² | - |
| 1777130352 | 13.89° C | 69% | 1014.9 hPa | 0 mm | - | 765 W/m² | - |
| 1777130052 | 14.44° C | 68% | 1014.9 hPa | 0 mm | - | 423 W/m² | - |
* Rain latest hour (hover to see other rain measurements)
** Current wind speed in m/s (hover to see current wind gust speed)